DELTA 1 DEB, 10875

Orbit data source: Space-Track

DELTA 1 DEB, 10875 is space debris in SSO originally from a launch on Thu, 29 Jul 1976 UTC launched from the Air Force Western Test Range (AFWTR). Debris objects in space refer to the collection of defunct objects orbiting the Earth. Examples of debris include non-operational satellites, rocket bodies, and fragments generated from explosions, collisions, or faulty payload assembly.

Loading next visibility...
Identifier
10875, 1976-077DD
Orbit
SSO
Country
Flag of USUS
Related business
Manufacturer
Unknown
Mission
Spacecraft
Bus & Motor
Unknown
Mass
Unknown
Launch date (UTC)
1976-07-29 (50 years ago)
Launch vehicle
Unknown
Launch site
Air Force Western Test Range (AFWTR)
Object type
Payload
Rocket body
Debris
Shape & HBR
Unknown shape, 0.1 m
Radar Cross Section
Small (<0.1 m²)

Expand to show TLE details & history
Last TLE update: 1 day ago

TLE from 1 day ago
0 DELTA 1 DEB
1 10875U 76077DD  26032.85703088  .00000010  00000-0  37385-3 0  9990
2 10875 101.9631 348.1016 0032535 125.6457 258.7377 12.47065621252254
Epoch: 2026-02-01T20:34Z
TLE epoch observation values (Epoch: 2026-02-01T20:34:07.468Z)
Latitude
23.48653°
Longitude
-97.74695°
Altitude
1,484.393 km
Speed
7.121 km/s
True Right ascension
22h 51m 22s
True Declination
23° 22' 22"
Sunlit
Object was in daylight at epoch
Visualization orbit readout
Latitude
Unknown
Longitude
Unknown
Altitude
Unknown
Speed
Unknown
Apparent Right ascension
Unknown
Apparent Declination
Unknown
Sunlit
N/A
Visualization observer readout
Local Sidereal Time
05:47:32
Azimuth
Unknown
Elevation
Unknown
Doppler factor
Unknown
Orbital elements
Apogee altitude
1,499.904 km
Perigee altitude
1,448.808 km
Semi-major axis
7,852.493 km
Eccentricity
0.00325
Inclination
101.9631°
RAAN
348.1016°
Arg. of periapsis
125.6457°
True anomaly
258.37235°
Mean anomaly
258.7377°
Eccentric anomaly
258.55499°
Mean motion
3.11912 °/min
Orbital period
115.42 mins
BSTAR
0.00037385
Loading maneuver chart data...
Computing Atmospheric mass density...
Loading historical data...
Loading historical data...
Loading historical data...
Loading historical data...
Loading historical data...
Loading historical data...
Loading historical data...

Documentation

Showing up to 5 results
|